Location: Krasnoyarskiy Pitomnik
(51.1333°N, 71.6167°E)
Time: 19:50:24
(UTC+00:00)

Envisat - Pass Details

Date: 03 March 2024
Orbit: 762 x 764 km, 98.3° (Epoch: 13 April)

Event Time Altitude Azimuth Distance (km) Brightness Sun altitude
Rises 22:26:26 0° 17° (NNE) 3,243 6.9 -31.7°
Reaches altitude 10° 22:28:48 10° 22° (NNE) 2,312 6.1 -31.4°
Enters shadow 22:33:23 53° 80° (E) 936 3.6 -30.7°
